Regional Weather Roundup
Issued by NWS

Home | Current Version | Previous Version | Text Only | Print | Product List | Glossary Off
Versions: 1 2 3 4 5 6 7 8 9 10 11 12 13 14 15 16 17 18 19 20 21 22 23 24 25 26 27 28 29 30 31 32 33 34 35 36 37 38 39 40 41 42 43 44 45 46 47 48 49 50

000
ASUS43 KFSD 241602
RWRSD

WEATHER ROUNDUP FOR SOUTH DAKOTA
NATIONAL WEATHER SERVICE SIOUX FALLS SD
1100 AM CDT TUE MAY 24 2016

NOTE: "FAIR" INDICATES FEW OR NO CLOUDS BELOW 12,000 FEET WITH NO
SIGNIFICANT WEATHER AND/OR OBSTRUCTIONS TO VISIBILITY.


SDZ001>005-009-010-012>017-241700-
NORTHWEST AND NORTH CENTRAL SOUTH DAKOTA

CITY           SKY/WX    TMP DP  RH WIND       PRES   REMARKS
BUFFALO          N/A     65  41  41 NE6       29.86S
FAITH            N/A     66  40  38 VRB5      29.90S
MOBRIDGE       SUNNY     69  44  40 CALM      29.87S
$$

SDZ012>016-024>037-041>051-057-063-072>074-241700-
SOUTHWEST AND SOUTH CENTRAL SOUTH DAKOTA

CITY           SKY/WX    TMP DP  RH WIND       PRES   REMARKS
RAPID CTY ARPT SUNNY     64  41  42 E5        29.92F
PIERRE         SUNNY     67  51  56 CALM      29.86R
CUSTER         MOSUNNY   58  32  37 SE8       29.97S
ELLSWORTH AFB  SUNNY     63  41  44 VRB1      29.92S
PHILIP         SUNNY     66  50  56 NE6       29.89S
PINE RIDGE     SUNNY     65  41  41 CALM      29.92S
WINNER         FAIR      70  49  47 W6        29.88S
$$

SDZ004>011-016>023-039-040-241700-
NORTHEAST SOUTH DAKOTA

CITY           SKY/WX    TMP DP  RH WIND       PRES   REMARKS
ABERDEEN       SUNNY     74  51  44 E12G21    29.85F
WATERTOWN      SUNNY     71  60  68 VRB5      29.86R
BROOKINGS      CLOUDY    64  61  90 CALM      29.87R
SISSETON         N/A     74  55  51 E6        29.84S
$$

SDZ017-020-022-023-036>040-048>070-241700-
SOUTHEAST SOUTH DAKOTA

CITY           SKY/WX    TMP DP  RH WIND       PRES   REMARKS
SIOUX FALLS    CLOUDY    71  61  70 S5        29.87R
HURON          SUNNY     71  56  58 VRB5      29.85S
MITCHELL       SUNNY     74  56  53 VRB3      29.85S
YANKTON        MOSUNNY   72  57  60 CALM      29.85S
$$

ABBREVIATIONS USED IN REMARKS
   TC - TEMPERATURE IN CELSIUS
  WCI - WIND CHILL INDEX
   HX - HEAT INDEX
  VSB - VISIBILITY




USA.gov is the U.S. government's official web portal to all federal, state and local government web resources and services.